| time (UTC) | temp F | wind direction | speed MPH | gust MPH | rain 1hr in | rain 24hr in | rain mn in | humidity % | barometer mb |
| 20260906024539 | 80 | 1 | 2.0 | 4.0 | 0.00 | 0.00 | 0.00 | 49 | 1016.9 |
| 20260906023035 | 77 | 345 | 0.0 | 4.0 | 0.00 | 0.00 | 0.00 | 63 | 1016.9 |
| 20260906021558 | 77 | 320 | 3.0 | 5.0 | 0.00 | 0.00 | 0.00 | 64 | 1016.9 |
| 20260906020046 | 77 | 312 | 2.0 | 3.0 | 0.00 | 0.00 | 0.00 | 65 | 1016.9 |
| 20260906014607 | 77 | 323 | 2.0 | 4.0 | 0.00 | 0.00 | 0.00 | 65 | 1017.0 |
| 20260906013048 | 79 | 319 | 2.0 | 6.0 | 0.00 | 0.00 | 0.00 | 63 | 1017.1 |
| 20260906011546 | 79 | 304 | 2.0 | 3.0 | 0.00 | 0.00 | 0.00 | 62 | 1017.1 |
| 20260906010103 | 79 | 327 | 2.0 | 4.0 | 0.00 | 0.00 | 0.00 | 62 | 1017.3 |
| 20260906004501 | 78 | 339 | 0.0 | 3.0 | 0.00 | 0.00 | 0.00 | 64 | 1017.1 |
| 20260906003024 | 79 | 345 | 1.0 | 4.0 | 0.00 | 0.00 | 0.00 | 64 | 1017.2 |
| 20260906001546 | 80 | 304 | 2.0 | 4.0 | 0.00 | 0.00 | 0.00 | 62 | 1017.2 |
| 20260906000042 | 80 | 320 | 1.0 | 4.0 | 0.00 | 0.00 | 0.00 | 61 | 1017.0 |
| 20260905234514 | 81 | 316 | 2.0 | 4.0 | 0.00 | 0.00 | 0.00 | 57 | 1017.2 |
| 20260905233032 | 81 | 298 | 1.0 | 2.0 | 0.00 | 0.00 | 0.00 | 54 | 1017.2 |
| 20260905231540 | 82 | 310 | 1.0 | 4.0 | 0.00 | 0.00 | 0.00 | 51 | 1017.2 |
| 20260905230047 | 83 | 316 | 2.0 | 4.0 | 0.00 | 0.00 | 0.00 | 48 | 1017.2 |
| 20260905224504 | 83 | 322 | 0.0 | 3.0 | 0.00 | 0.00 | 0.00 | 47 | 1017.2 |
| 20260905223100 | 83 | 340 | 0.0 | 2.0 | 0.00 | 0.00 | 0.00 | 48 | 1017.0 |
| 20260905221603 | 83 | 312 | 0.0 | 3.0 | 0.00 | 0.00 | 0.00 | 48 | 1017.1 |
| 20260905220059 | 83 | 281 | 0.0 | 1.0 | 0.00 | 0.00 | 0.00 | 48 | 1017.0 |
| 20260905214520 | 86 | 325 | 0.0 | 2.0 | 0.00 | 0.00 | 0.00 | 44 | 1017.0 |
| 20260905213038 | 86 | 314 | 0.0 | 3.0 | 0.00 | 0.00 | 0.00 | 42 | 1016.9 |
| 20260905211543 | 87 | 330 | 1.0 | 3.0 | 0.00 | 0.00 | 0.00 | 42 | 1016.7 |
| 20260905210053 | 88 | 329 | 0.0 | 3.0 | 0.00 | 0.00 | 0.00 | 41 | 1016.7 |
| 20260905204545 | 89 | 333 | 0.0 | 4.0 | 0.00 | 0.00 | 0.00 | 40 | 1016.5 |
| 20260905203042 | 90 | 16 | 2.0 | 5.0 | 0.00 | 0.00 | 0.00 | 39 | 1016.4 |
| 20260905201544 | 90 | 25 | 4.0 | 7.0 | 0.00 | 0.00 | 0.00 | 39 | 1016.2 |
| 20260905200109 | 90 | 12 | 4.0 | 7.0 | 0.00 | 0.00 | 0.00 | 39 | 1016.1 |
| 20260905194552 | 90 | 31 | 4.0 | 7.0 | 0.00 | 0.00 | 0.00 | 39 | 1016.0 |
| 20260905193052 | 90 | 20 | 1.0 | 4.0 | 0.00 | 0.00 | 0.00 | 39 | 1015.8 |
| 20260905191504 | 91 | 20 | 2.0 | 4.0 | 0.00 | 0.00 | 0.00 | 39 | 1015.6 |
| 20260905190017 | 92 | 37 | 1.0 | 4.0 | 0.00 | 0.00 | 0.00 | 39 | 1015.6 |
| 20260905184533 | 92 | 9 | 1.0 | 3.0 | 0.00 | 0.00 | 0.00 | 39 | 1015.6 |
| 20260905183010 | 93 | 25 | 0.0 | 4.0 | 0.00 | 0.00 | 0.00 | 39 | 1015.6 |
| 20260905181512 | 93 | 36 | 2.0 | 5.0 | 0.00 | 0.00 | 0.00 | 38 | 1015.5 |
| 20260905180016 | 94 | 52 | 3.0 | 7.0 | 0.00 | 0.00 | 0.00 | 38 | 1015.7 |
| 20260905174519 | 95 | 42 | 2.0 | 5.0 | 0.00 | 0.00 | 0.00 | 39 | 1015.5 |
| 20260905173016 | 95 | 54 | 4.0 | 8.0 | 0.00 | 0.00 | 0.00 | 37 | 1015.5 |
| 20260905171527 | 95 | 70 | 3.0 | 7.0 | 0.00 | 0.00 | 0.00 | 36 | 1015.4 |
| 20260905170008 | 95 | 106 | 2.0 | 8.0 | 0.00 | 0.00 | 0.00 | 37 | 1015.5 |
| 20260905164538 | 95 | 52 | 0.0 | 7.0 | 0.00 | 0.00 | 0.00 | 39 | 1015.5 |
| 20260905163016 | 94 | 58 | 2.0 | 5.0 | 0.00 | 0.00 | 0.00 | 42 | 1015.5 |
| 20260905161510 | 93 | 94 | 1.0 | 4.0 | 0.00 | 0.00 | 0.00 | 43 | 1015.6 |
| 20260905160006 | 93 | 75 | 1.0 | 6.0 | 0.00 | 0.00 | 0.00 | 43 | 1015.7 |
| 20260905154522 | 92 | 92 | 4.0 | 6.0 | 0.00 | 0.00 | 0.00 | 43 | 1015.8 |
| 20260905153014 | 92 | 84 | 3.0 | 6.0 | 0.00 | 0.00 | 0.00 | 43 | 1015.9 |
| 20260905151555 | 93 | 108 | 4.0 | 7.0 | 0.00 | 0.00 | 0.00 | 42 | 1016.1 |
| 20260905150040 | 93 | 99 | 2.0 | 5.0 | 0.00 | 0.00 | 0.00 | 41 | 1016.1 |
| 20260905144558 | 93 | 108 | 1.0 | 6.0 | 0.00 | 0.00 | 0.00 | 41 | 1016.4 |
| 20260905143024 | 93 | 122 | 3.0 | 6.0 | 0.00 | 0.00 | 0.00 | 40 | 1016.7 |
| 20260905141505 | 93 | 134 | 2.0 | 8.0 | 0.00 | 0.00 | 0.00 | 41 | 1016.7 |
| 20260905140002 | 93 | 113 | 4.0 | 8.0 | 0.00 | 0.00 | 0.00 | 42 | 1016.8 |
| 20260905134539 | 92 | 359 | 3.0 | 7.0 | 0.00 | 0.00 | 0.00 | 44 | 1017.0 |
| 20260905133013 | 91 | 114 | 5.0 | 9.0 | 0.00 | 0.00 | 0.00 | 44 | 1017.1 |
| 20260905131552 | 91 | 84 | 4.0 | 10.0 | 0.00 | 0.00 | 0.00 | 45 | 1017.1 |
| 20260905124523 | 89 | 68 | 8.0 | 14.0 | 0.00 | 0.00 | 0.00 | 47 | 1017.1 |
| 20260905123025 | 89 | 91 | 5.0 | 9.0 | 0.00 | 0.00 | 0.00 | 48 | 1017.2 |
| 20260905121525 | 88 | 82 | 6.0 | 9.0 | 0.00 | 0.00 | 0.00 | 49 | 1017.3 |
| 20260905120008 | 87 | 78 | 5.0 | 13.0 | 0.00 | 0.00 | 0.00 | 50 | 1017.3 |
| 20260905114508 | 87 | 70 | 6.0 | 12.0 | 0.00 | 0.00 | 0.00 | 50 | 1017.1 |
| 20260905113004 | 87 | 106 | 9.0 | 15.0 | 0.00 | 0.00 | 0.00 | 50 | 1017.2 |
| 20260905111606 | 88 | 70 | 4.0 | 8.0 | 0.00 | 0.00 | 0.00 | 50 | 1017.5 |
| 20260905110057 | 88 | 82 | 6.0 | 11.0 | 0.00 | 0.00 | 0.00 | 49 | 1017.6 |
| 20260905104503 | 89 | 83 | 5.0 | 11.0 | 0.00 | 0.00 | 0.00 | 47 | 1017.9 |
| 20260905103106 | 89 | 68 | 3.0 | 11.0 | 0.00 | 0.00 | 0.00 | 46 | 1017.8 |
| 20260905101600 | 89 | 63 | 2.0 | 8.0 | 0.00 | 0.00 | 0.00 | 46 | 1017.5 |
| 20260905100058 | 87 | 300 | 1.0 | 8.0 | 0.00 | 0.00 | 0.00 | 53 | 1017.5 |
| 20260905094518 | 88 | 37 | 2.0 | 5.0 | 0.00 | 0.00 | 0.00 | 51 | 1017.4 |
| 20260905093025 | 87 | 280 | 0.0 | 5.0 | 0.00 | 0.00 | 0.00 | 51 | 1017.3 |
| 20260905091525 | 88 | 300 | 0.0 | 3.0 | 0.00 | 0.00 | 0.00 | 48 | 1017.2 |
| 20260905090026 | 88 | 322 | 1.0 | 5.0 | 0.00 | 0.00 | 0.00 | 47 | 1016.9 |
| 20260905084534 | 87 | 37 | 3.0 | 8.0 | 0.00 | 0.00 | 0.00 | 51 | 1016.9 |
| 20260905083049 | 86 | 41 | 4.0 | 8.0 | 0.00 | 0.00 | 0.00 | 53 | 1016.9 |
| 20260905081550 | 85 | 43 | 6.0 | 9.0 | 0.00 | 0.00 | 0.00 | 54 | 1017.3 |
| 20260905080112 | 84 | 82 | 2.0 | 6.0 | 0.00 | 0.00 | 0.00 | 56 | 1017.4 |
| 20260905074544 | 84 | 41 | 1.0 | 4.0 | 0.00 | 0.00 | 0.00 | 54 | 1017.1 |
| 20260905073041 | 83 | 4 | 1.0 | 3.0 | 0.00 | 0.00 | 0.00 | 58 | 1017.0 |
| 20260905071541 | 81 | 356 | 1.0 | 3.0 | 0.00 | 0.00 | 0.00 | 60 | 1016.9 |
| 20260905070054 | 81 | 320 | 5.0 | 8.0 | 0.00 | 0.00 | 0.00 | 61 | 1016.8 |
| 20260905064605 | 81 | 316 | 4.0 | 7.0 | 0.00 | 0.00 | 0.00 | 62 | 1016.6 |
| 20260905063020 | 81 | 337 | 3.0 | 5.0 | 0.00 | 0.00 | 0.00 | 62 | 1016.5 |
| 20260905061535 | 80 | 321 | 0.0 | 1.0 | 0.00 | 0.00 | 0.00 | 64 | 1016.2 |
| 20260905060034 | 80 | 279 | 0.0 | 2.0 | 0.00 | 0.00 | 0.00 | 64 | 1016.2 |
| 20260905054551 | 80 | 282 | 1.0 | 5.0 | 0.00 | 0.00 | 0.00 | 65 | 1016.2 |
| 20260905053103 | 80 | 248 | 5.0 | 9.0 | 0.00 | 0.00 | 0.00 | 65 | 1016.3 |
| 20260905051552 | 81 | 274 | 5.0 | 9.0 | 0.00 | 0.00 | 0.00 | 63 | 1016.1 |
| 20260905050049 | 84 | 255 | 0.0 | 1.0 | 0.00 | 0.00 | 0.00 | 58 | 1015.4 |
| 20260905044605 | 84 | 124 | 1.0 | 3.0 | 0.00 | 0.00 | 0.00 | 57 | 1015.1 |
| 20260905043110 | 84 | 177 | 0.0 | 1.0 | 0.00 | 0.00 | 0.00 | 58 | 1015.2 |
| 20260905041602 | 84 | 340 | 0.0 | 1.0 | 0.00 | 0.00 | 0.00 | 57 | 1015.1 |
| 20260905034606 | 83 | 323 | 2.0 | 4.0 | 0.00 | 0.00 | 0.00 | 58 | 1014.9 |
| 20260905033100 | 84 | 352 | 0.0 | 3.0 | 0.00 | 0.00 | 0.00 | 58 | 1014.7 |
| 20260905031604 | 84 | 30 | 2.0 | 4.0 | 0.00 | 0.00 | 0.00 | 57 | 1014.7 |